Falfurrias, TX

12:08 PM CST on February 09, 2016 (GMT -0600)
Falfurrias

Weather History for KBKS - October, 2012

Change the Weather History Date:

Wednesday, October 31, 2012

  Actual Average (KNQI) Record (KNQI)
Temperature  
Mean Temperature 76 °F -  
Max Temperature 91 °F 78 °F 93 °F (2013)
Min Temperature 62 °F 59 °F 48 °F (2007)
Cooling Degree Days 11    
Growing Degree Days 26 (Base 50)    
Moisture  
Dew Point 62 °F    
Average Humidity 67    
Maximum Humidity 91    
Minimum Humidity 25    
Precipitation  
Precipitation 0.00 in - - ()
Sea Level Pressure  
Sea Level Pressure 29.98 in    
Wind  
Wind Speed 5 mph (ESE)    
Max Wind Speed 13 mph    
Max Gust Speed 20 mph    
Visibility 10 miles    
Events      
Averages and records for this station are not official NWS values.
T = Trace of Precipitation, MM = Missing Value Source: NWS Daily Summary

Daily Weather History Graph

Daily Weather History Graph

Search for Another Location

Airport or City:

Trip Planner

Search our weather history database for the weather conditions in past years. The results will help you decide how hot, cold, wet, or windy it might be!

Date:

Astronomy

Oct. 31, 2012 Rise Set
Actual Time 7:42 AM CDT 6:49 PM CDT
Civil Twilight 7:18 AM CDT 7:13 PM CDT
Nautical Twilight 6:50 AM CDT 7:40 PM CDT
Astronomical Twilight 6:23 AM CDT 8:08 PM CDT
Moon 8:11 PM CDT (10/31) 9:15 AM CDT (10/31)
Length of Visible Light 11h 55m
Length of Day
11h 07m
Full, 97% of the Moon is Illuminated
Oct 31
Full
Nov 6
Last Quarter
Nov 13
New
Nov 20
First Quarter
Nov 28
Full

Hourly Weather History & Observations

Time (CDT) Temp. Heat Index Dew Point Humidity Pressure Visibility Wind Dir Wind Speed Gust Speed Precip Events Conditions
12:15 AM 68.0 °F - 61.0 °F 78% 29.99 in 10.0 mi SE 4.6 mph - N/A   Clear
12:35 AM 67.6 °F - 61.0 °F 79% 29.99 in 10.0 mi ESE 3.5 mph - N/A   Clear
12:55 AM 66.2 °F - 60.8 °F 83% 29.99 in 10.0 mi East 3.5 mph - N/A   Clear
1:15 AM 64.9 °F - 60.3 °F 85% 29.99 in 10.0 mi East 3.5 mph - N/A   Clear
1:35 AM 64.9 °F - 60.4 °F 85% 29.99 in 10.0 mi East 3.5 mph - N/A   Mostly Cloudy
1:55 AM 64.9 °F - 60.8 °F 86% 29.98 in 10.0 mi East 4.6 mph - N/A   Overcast
2:15 AM 65.7 °F - 60.8 °F 84% 29.98 in 10.0 mi ENE 3.5 mph - N/A   Overcast
2:35 AM 66.2 °F - 61.2 °F 84% 29.98 in 10.0 mi East 3.5 mph - N/A   Overcast
2:55 AM 66.6 °F - 61.7 °F 84% 29.98 in 10.0 mi East 3.5 mph - N/A   Overcast
3:15 AM 67.6 °F - 62.1 °F 82% 29.98 in 10.0 mi East 3.5 mph - N/A   Mostly Cloudy
3:35 AM 67.6 °F - 62.2 °F 83% 29.97 in 10.0 mi East 3.5 mph - N/A   Mostly Cloudy
3:55 AM 67.3 °F - 62.2 °F 84% 29.97 in 10.0 mi ESE 3.5 mph - N/A   Mostly Cloudy
4:15 AM 67.1 °F - 62.2 °F 84% 29.97 in 10.0 mi ESE 4.6 mph - N/A   Mostly Cloudy
4:35 AM 67.5 °F - 62.6 °F 84% 29.97 in 10.0 mi ESE 4.6 mph - N/A   Mostly Cloudy
4:55 AM 68.5 °F - 63.0 °F 82% 29.97 in 10.0 mi ESE 3.5 mph - N/A   Overcast
5:15 AM 71.1 °F - 64.6 °F 80% 29.96 in 10.0 mi SE 6.9 mph - N/A   Overcast
5:35 AM 68.5 °F - 62.8 °F 82% 29.97 in 10.0 mi Calm Calm - N/A   Overcast
5:55 AM 66.0 °F - 61.7 °F 86% 29.97 in 10.0 mi NE 3.5 mph - N/A   Mostly Cloudy
6:15 AM 65.5 °F - 61.5 °F 87% 29.97 in 10.0 mi Calm Calm - N/A   Mostly Cloudy
6:35 AM 64.4 °F - 60.8 °F 88% 29.97 in 10.0 mi NE 3.5 mph - N/A   Scattered Clouds
6:55 AM 63.7 °F - 60.8 °F 90% 29.97 in 10.0 mi Calm Calm - N/A   Scattered Clouds
7:15 AM 63.0 °F - 59.9 °F 90% 29.97 in 10.0 mi Calm Calm - N/A   Scattered Clouds
7:35 AM 62.6 °F - 59.9 °F 91% 29.98 in 10.0 mi Calm Calm - N/A   Scattered Clouds
7:55 AM 62.6 °F - 59.5 °F 90% 29.98 in 10.0 mi Calm Calm - N/A   Scattered Clouds
8:15 AM 62.1 °F - 59.5 °F 91% 29.99 in 10.0 mi ENE 3.5 mph - N/A   Clear
8:35 AM 62.8 °F - 60.3 °F 91% 29.99 in 10.0 mi Calm Calm - N/A   Clear
8:55 AM 65.1 °F - 61.7 °F 89% 30.00 in 10.0 mi ENE 3.5 mph - N/A   Clear
9:15 AM 68.5 °F - 63.0 °F 82% 30.01 in 10.0 mi Calm Calm - N/A   Clear
9:35 AM 73.6 °F - 65.5 °F 76% 30.01 in 10.0 mi SSE 5.8 mph - N/A   Clear
9:55 AM 75.7 °F - 66.2 °F 72% 30.01 in 10.0 mi SSE 9.2 mph - N/A   Scattered Clouds
10:15 AM 77.2 °F - 66.2 °F 69% 30.01 in 10.0 mi SSE 12.7 mph - N/A   Clear
10:35 AM 78.8 °F - 64.6 °F 62% 30.02 in 10.0 mi SSE 10.4 mph - N/A   Clear
10:55 AM 80.1 °F 81.5 °F 63.3 °F 56% 30.02 in 10.0 mi South 11.5 mph - N/A   Clear
11:15 AM 81.0 °F 82.1 °F 62.6 °F 53% 30.02 in 10.0 mi South 10.4 mph - N/A   Clear
11:35 AM 82.0 °F 83.1 °F 62.6 °F 52% 30.02 in 10.0 mi South 8.1 mph - N/A   Clear
11:55 AM 83.5 °F 83.9 °F 61.3 °F 47% 30.02 in 10.0 mi SSW 5.8 mph - N/A   Clear
12:15 PM 84.4 °F 84.6 °F 61.2 °F 45% 30.01 in 10.0 mi SE 5.8 mph - N/A   Clear
12:35 PM 86.0 °F 85.9 °F 60.3 °F 42% 30.01 in 10.0 mi South 3.5 mph - N/A   Scattered Clouds
1:15 PM 86.5 °F 85.4 °F 57.7 °F 37% 29.99 in 10.0 mi SSE 8.1 mph - N/A   Scattered Clouds
1:35 PM 87.4 °F 86.1 °F 57.0 °F 35% 29.98 in 10.0 mi SE 6.9 mph - N/A   Scattered Clouds
1:55 PM 87.4 °F 86.1 °F 56.3 °F 35% 29.97 in 10.0 mi South 8.1 mph - N/A   Scattered Clouds
2:15 PM 88.5 °F 86.7 °F 55.0 °F 32% 29.96 in 10.0 mi ESE 5.8 mph - N/A   Scattered Clouds
2:35 PM 89.6 °F 87.3 °F 53.8 °F 29% 29.95 in 10.0 mi SE 3.5 mph - N/A   Scattered Clouds
2:55 PM 90.3 °F - 52.9 °F 28% 29.94 in 10.0 mi SE 4.6 mph - N/A   Mostly Cloudy
3:15 PM 90.7 °F - 52.7 °F 27% 29.93 in 10.0 mi South 5.8 mph - N/A   Mostly Cloudy
3:35 PM 90.3 °F - 52.2 °F 27% 29.93 in 10.0 mi South 6.9 mph - N/A   Overcast
3:55 PM 89.8 °F - 52.0 °F 27% 29.92 in 10.0 mi Calm Calm - N/A   Mostly Cloudy
4:15 PM 90.9 °F - 50.4 °F 25% 29.92 in 10.0 mi SSE 5.8 mph - N/A   Scattered Clouds
4:55 PM 90.5 °F - 50.2 °F 25% 29.91 in 10.0 mi SSE 3.5 mph - N/A   Clear
5:15 PM 90.0 °F - 49.6 °F 25% 29.91 in 10.0 mi ENE 5.8 mph - N/A   Clear
5:35 PM 87.4 °F 88.5 °F 63.7 °F 45% 29.91 in 10.0 mi East 12.7 mph - N/A   Scattered Clouds
6:15 PM 84.2 °F 85.8 °F 64.6 °F 52% 29.92 in 10.0 mi East 11.5 mph 19.6 mph N/A   Scattered Clouds
6:35 PM 83.3 °F 85.1 °F 65.3 °F 54% 29.92 in 10.0 mi East 10.4 mph 16.1 mph N/A   Clear
6:55 PM 82.4 °F 84.2 °F 65.5 °F 56% 29.93 in 10.0 mi ESE 9.2 mph 17.3 mph N/A   Clear
7:15 PM 81.3 °F 83.3 °F 65.7 °F 59% 29.94 in 10.0 mi East 10.4 mph - N/A   Clear
7:35 PM 80.1 °F 82.2 °F 66.6 °F 63% 29.95 in 10.0 mi East 8.1 mph - N/A   Clear
7:55 PM 79.3 °F - 67.3 °F 66% 29.96 in 10.0 mi East 9.2 mph - N/A   Clear
8:15 PM 78.8 °F - 67.6 °F 68% 29.96 in 10.0 mi ESE 6.9 mph - N/A   Clear
8:35 PM 77.5 °F - 68.0 °F 72% 29.97 in 10.0 mi ESE 5.8 mph - N/A   Clear
8:55 PM 76.6 °F - 68.2 °F 75% 29.97 in 10.0 mi East 5.8 mph - N/A   Clear
9:15 PM 76.3 °F - 68.5 °F 77% 29.98 in 10.0 mi East 5.8 mph - N/A   Clear
9:35 PM 75.7 °F - 68.4 °F 78% 29.98 in 10.0 mi East 6.9 mph - N/A   Clear
9:55 PM 75.4 °F - 68.0 °F 78% 29.98 in 10.0 mi ESE 6.9 mph - N/A   Clear
10:15 PM 75.2 °F - 68.0 °F 78% 29.99 in 10.0 mi ESE 5.8 mph - N/A   Clear
10:35 PM 74.7 °F - 68.0 °F 80% 30.00 in 10.0 mi ESE 5.8 mph - N/A   Clear
10:55 PM 74.3 °F - 67.8 °F 80% 30.00 in 10.0 mi ESE 5.8 mph - N/A   Clear
11:15 PM 73.6 °F - 67.6 °F 82% 30.01 in 10.0 mi ESE 5.8 mph - N/A   Clear
11:35 PM 73.2 °F - 67.6 °F 83% 30.01 in 10.0 mi ESE 4.6 mph - N/A   Clear
11:55 PM 72.5 °F - 67.5 °F 84% 30.01 in 10.0 mi ESE 3.5 mph - N/A   Clear